Location: Newark
(59.4564°N, 26.6917°E)
Time: 09:05:24
(UTC+00:00)

SR - Pass Details

Date: 01 December 2019
Orbit: 573 x 882 km, 66.7° (Epoch: 06 December)

Event Time Altitude Azimuth Distance (km) Brightness Sun altitude
Rises 19:16:34 0° 312° (NW) 3,494 ? -42.4°
Reaches altitude 10° 19:19:31 10° 299° (WNW) 2,551 ? -42.7°
Enters shadow 19:21:31 18° 283° (WNW) 2,038 ? -42.9°
Maximum altitude 19:24:08 24° 248° (WSW) 1,731 - -43.2°
Drops below altitude 10° 19:28:38 10° 197° (SSW) 2,478 - -43.6°
Sets 19:31:28 0° 184° (S) 3,370 - -43.9°
